DW4879 Weather Reports


Display with metric or nautical units.
time (UTC)temp
F
wind
direction
speed
MPH
gust
MPH
rain 1hr
in
rain 24hr
in
rain mn
in
humidity
%
barometer
mb
20260504041002 65 212 6.0 12.0 0.00 0.00 0.00 29 1017.1
20260504040558 65 213 3.0 8.0 0.00 0.00 0.00 26 1017.0
20260504040120 65 238 3.0 7.0 0.00 0.00 0.00 26 1017.0
20260504035559 66 274 2.0 9.0 0.00 0.00 0.00 25 1017.0
20260504035101 66 240 3.0 8.0 0.00 0.00 0.00 25 1017.0
20260504034502 66 230 2.0 8.0 0.00 0.00 0.00 24 1016.9
20260504034059 66 202 3.0 8.0 0.00 0.00 0.00 24 1016.9
20260504033502 67 192 1.0 12.0 0.00 0.00 0.00 24 1016.8
20260504033057 67 289 3.0 12.0 0.00 0.00 0.00 23 1016.8
20260504032604 67 232 3.0 12.0 0.00 0.00 0.00 23 1016.7
20260504032053 67 298 7.0 12.0 0.00 0.00 0.00 23 1016.7
20260504031545 67 241 4.0 10.0 0.00 0.00 0.00 23 1016.6
20260504031052 67 252 4.0 10.0 0.00 0.00 0.00 22 1016.6
20260504030600 67 223 3.0 8.0 0.00 0.00 0.00 23 1016.6
20260504030001 67 234 3.0 10.0 0.00 0.00 0.00 22 1016.4
20260504025512 68 229 3.0 11.0 0.00 0.00 0.00 22 1016.5
20260504025102 68 200 6.0 11.0 0.00 0.00 0.00 21 1016.4
20260504024552 67 219 2.0 7.0 0.00 0.00 0.00 21 1016.4
20260504024100 67 213 1.0 18.0 0.00 0.00 0.00 21 1016.3
20260504023551 67 294 7.0 18.0 0.00 0.00 0.00 22 1016.2
20260504023057 67 238 3.0 10.0 0.00 0.00 0.00 21 1016.1
20260504022603 68 213 1.0 2.0 0.00 0.00 0.00 21 1016.2
20260504022006 68 303 0.0 0.0 0.00 0.00 0.00 21 1016.0
20260504021601 68 303 0.0 0.0 0.00 0.00 0.00 20 1016.0
20260504021004 68 303 0.0 1.0 0.00 0.00 0.00 20 1016.0
20260504020510 69 303 0.0 2.0 0.00 0.00 0.00 20 1016.0
20260504020105 69 303 0.0 2.0 0.00 0.00 0.00 20 1015.9
20260504015556 69 303 0.0 2.0 0.00 0.00 0.00 20 1015.9
20260504015102 69 303 0.0 1.0 0.00 0.00 0.00 20 1015.9
20260504014505 70 303 0.0 2.0 0.00 0.00 0.00 20 1016.0
20260504014008 70 303 0.0 2.0 0.00 0.00 0.00 20 1016.0
20260504013605 70 303 0.0 2.0 0.00 0.00 0.00 19 1015.9
20260504013103 70 303 0.0 2.0 0.00 0.00 0.00 19 1016.0
20260504012559 71 303 0.0 2.0 0.00 0.00 0.00 19 1016.0
20260504012050 71 303 0.0 2.0 0.00 0.00 0.00 19 1016.0
20260504011541 71 306 0.0 3.0 0.00 0.00 0.00 19 1016.0
20260504011048 71 306 1.0 3.0 0.00 0.00 0.00 19 1016.1
20260504010539 72 289 1.0 4.0 0.00 0.00 0.00 19 1016.0
20260504010053 72 248 1.0 5.0 0.00 0.00 0.00 18 1016.0
20260504005551 72 246 2.0 5.0 0.00 0.00 0.00 18 1016.1
20260504005059 73 213 1.0 9.0 0.00 0.00 0.00 18 1016.1
20260504004604 73 232 0.0 9.0 0.00 0.00 0.00 18 1016.2
20260504004056 74 309 4.0 8.0 0.00 0.00 0.00 17 1016.2
20260504003601 74 225 2.0 6.0 0.00 0.00 0.00 17 1016.2
20260504003006 75 234 3.0 6.0 0.00 0.00 0.00 17 1016.2
20260504002559 75 169 2.0 8.0 0.00 0.00 0.00 17 1016.2
20260504002004 74 259 3.0 9.0 0.00 0.00 0.00 17 1016.3
20260504001603 74 182 3.0 13.0 0.00 0.00 0.00 17 1016.4
20260504001104 74 171 9.0 13.0 0.00 0.00 0.00 17 1016.3
20260504000555 75 189 7.0 11.0 0.00 0.00 0.00 17 1016.3
20260504000132 75 194 7.0 10.0 0.00 0.00 0.00 17 1016.3
20260503235504 75 179 5.0 10.0 0.00 0.00 0.00 16 1016.3
20260503235101 75 207 4.0 9.0 0.00 0.00 0.00 17 1016.4
20260503234505 75 246 2.0 9.0 0.00 0.00 0.00 17 1016.5
20260503234058 75 272 4.0 9.0 0.00 0.00 0.00 16 1016.6
20260503233604 75 289 4.0 10.0 0.00 0.00 0.00 16 1016.5
20260503233004 76 284 4.0 8.0 0.00 0.00 0.00 16 1016.6
20260503232514 76 180 3.0 6.0 0.00 0.00 0.00 16 1016.6
20260503232002 77 249 3.0 9.0 0.00 0.00 0.00 16 1016.7
20260503231514 76 224 4.0 10.0 0.00 0.00 0.00 16 1016.7
20260503231016 76 183 3.0 9.0 0.00 0.00 0.00 16 1016.8
20260503230524 75 207 3.0 11.0 0.00 0.00 0.00 16 1016.8
20260503230028 75 281 7.0 13.0 0.00 0.00 0.00 16 1016.9
20260503225533 75 203 6.0 11.0 0.00 0.00 0.00 16 1016.9
20260503225039 76 304 4.0 11.0 0.00 0.00 0.00 16 1017.0
20260503224547 77 241 7.0 16.0 0.00 0.00 0.00 15 1017.1
20260503224041 77 170 4.0 20.0 0.00 0.00 0.00 15 1017.2
20260503223545 77 206 1.0 8.0 0.00 0.00 0.00 15 1017.2
20260503223050 76 300 4.0 12.0 0.00 0.00 0.00 16 1017.3
20260503222557 76 220 2.0 12.0 0.00 0.00 0.00 15 1017.4
20260503222048 76 211 4.0 12.0 0.00 0.00 0.00 16 1017.4
20260503221555 75 5 6.0 14.0 0.00 0.00 0.00 15 1017.6
20260503221100 76 328 3.0 14.0 0.00 0.00 0.00 16 1017.7
20260503220503 75 161 3.0 7.0 0.00 0.00 0.00 16 1017.7
20260503220121 75 197 4.0 9.0 0.00 0.00 0.00 16 1017.8
20260503215604 76 159 4.0 13.0 0.00 0.00 0.00 15 1017.9
20260503215009 77 161 8.0 13.0 0.00 0.00 0.00 14 1017.8
20260503214604 78 325 3.0 11.0 0.00 0.00 0.00 15 1018.0
20260503214004 77 204 3.0 10.0 0.00 0.00 0.00 16 1018.0
20260503213559 76 269 5.0 10.0 0.00 0.00 0.00 15 1018.1
20260503213105 75 282 6.0 10.0 0.00 0.00 0.00 16 1018.2
20260503212556 74 312 3.0 13.0 0.00 0.00 0.00 16 1018.2
20260503212047 74 30 8.0 13.0 0.00 0.00 0.00 16 1018.3
20260503211554 73 294 7.0 11.0 0.00 0.00 0.00 16 1018.4
20260503211043 73 327 5.0 11.0 0.00 0.00 0.00 16 1018.4
20260503210535 71 279 1.0 4.0 0.00 0.00 0.00 17 1018.5
20260503210042 71 283 1.0 4.0 0.00 0.00 0.00 17 1018.6
20260503205533 71 325 2.0 5.0 0.00 0.00 0.00 17 1018.8
20260503205039 71 292 2.0 9.0 0.00 0.00 0.00 17 1018.9
20260503204545 72 263 4.0 11.0 0.00 0.00 0.00 17 1018.9
20260503204051 72 327 5.0 14.0 0.00 0.00 0.00 17 1018.9
20260503203542 73 298 5.0 11.0 0.00 0.00 0.00 16 1019.0
20260503203054 73 343 5.0 10.0 0.00 0.00 0.00 16 1019.0
20260503202558 72 115 3.0 9.0 0.00 0.00 0.00 17 1019.1
20260503202104 72 360 3.0 12.0 0.00 0.00 0.00 17 1019.3
20260503201506 73 30 4.0 12.0 0.00 0.00 0.00 17 1019.3
20260503201011 74 5 4.0 10.0 0.00 0.00 0.00 17 1019.5
20260503200605 74 60 6.0 9.0 0.00 0.00 0.00 17 1019.5
20260503200007 73 153 2.0 11.0 0.00 0.00 0.00 16 1019.6
20260503195602 73 26 3.0 13.0 0.00 0.00 0.00 16 1019.7
20260503195002 74 13 2.0 13.0 0.00 0.00 0.00 16 1019.7
20260503194602 74 180 1.0 7.0 0.00 0.00 0.00 16 1019.8
20260503194104 74 269 3.0 7.0 0.00 0.00 0.00 16 1019.9
20260503193506 75 211 0.0 11.0 0.00 0.00 0.00 15 1020.1
20260503193102 74 190 2.0 11.0 0.00 0.00 0.00 16 1020.1
20260503192502 74 267 4.0 10.0 0.00 0.00 0.00 16 1020.2
20260503192058 75 247 2.0 10.0 0.00 0.00 0.00 17 1020.3
20260503191603 75 206 4.0 10.0 0.00 0.00 0.00 17 1020.3
20260503191054 75 242 3.0 15.0 0.00 0.00 0.00 17 1020.4
20260503190548 74 186 5.0 15.0 0.00 0.00 0.00 17 1020.4
20260503190048 73 333 1.0 9.0 0.00 0.00 0.00 18 1020.5
20260503185554 73 178 5.0 10.0 0.00 0.00 0.00 18 1020.8
20260503185104 73 355 5.0 10.0 0.00 0.00 0.00 19 1020.8
20260503184603 73 134 3.0 10.0 0.00 0.00 0.00 18 1021.0
20260503184101 73 221 4.0 11.0 0.00 0.00 0.00 19 1021.1
20260503183608 73 189 4.0 14.0 0.00 0.00 0.00 18 1021.1
20260503183007 72 127 5.0 12.0 0.00 0.00 0.00 20 1021.2
20260503182603 72 112 2.0 10.0 0.00 0.00 0.00 20 1021.3
20260503182005 72 211 7.0 10.0 0.00 0.00 0.00 20 1021.4
20260503181603 72 173 1.0 9.0 0.00 0.00 0.00 20 1021.5
20260503181106 71 209 2.0 10.0 0.00 0.00 0.00 20 1021.6
20260503180512 71 110 4.0 12.0 0.00 0.00 0.00 20 1021.7
20260503180008 71 211 4.0 12.0 0.00 0.00 0.00 20 1021.7
20260503175602 70 55 3.0 11.0 0.00 0.00 0.00 21 1021.7
20260503175006 70 159 5.0 9.0 0.00 0.00 0.00 22 1021.8
20260503174601 70 105 4.0 12.0 0.00 0.00 0.00 23 1021.9
20260503174006 69 141 7.0 13.0 0.00 0.00 0.00 23 1021.8
20260503173559 69 110 2.0 10.0 0.00 0.00 0.00 25 1022.0
20260503173114 68 102 5.0 10.0 0.00 0.00 0.00 26 1022.1
20260503172507 68 200 4.0 11.0 0.00 0.00 0.00 25 1022.2
20260503172105 68 143 5.0 11.0 0.00 0.00 0.00 27 1022.2
20260503171506 67 93 4.0 11.0 0.00 0.00 0.00 27 1022.2
20260503171014 67 38 6.0 11.0 0.00 0.00 0.00 27 1022.3
20260503170518 67 113 4.0 10.0 0.00 0.00 0.00 28 1022.4
20260503160113 61 119 7.0 12.0 0.00 0.00 0.00 33 1022.8
20260503151009 57 94 6.0 12.0 0.00 0.00 0.00 37 1023.1
20260503150605 56 84 8.0 13.0 0.00 0.00 0.00 37 1023.1
20260503131048 46 68 5.0 10.0 0.00 0.00 0.00 42 1022.7
20260503130556 45 42 4.0 10.0 0.00 0.00 0.00 41 1022.7
20260503110603 44 106 3.0 8.0 0.00 0.00 0.00 41 1022.5
20260503081516 47 113 2.0 4.0 0.00 0.00 0.00 37 1022.4
20260503081015 47 107 3.0 4.0 0.00 0.00 0.00 38 1022.5
20260503080521 47 110 3.0 4.0 0.00 0.00 0.00 37 1022.5
20260503072544 48 98 3.0 4.0 0.00 0.00 0.00 35 1022.5
20260503072050 49 94 3.0 4.0 0.00 0.00 0.00 34 1022.6
20260503071549 49 105 3.0 4.0 0.00 0.00 0.00 34 1022.5
20260503071049 49 103 2.0 4.0 0.00 0.00 0.00 33 1022.6
20260503070555 49 111 2.0 6.0 0.00 0.00 0.00 33 1022.6
20260503060110 53 98 2.0 3.0 0.00 0.00 0.00 30 1022.2
20260503055103 53 90 2.0 3.0 0.00 0.00 0.00 30 1022.2
20260503054506 53 93 2.0 3.0 0.00 0.00 0.00 30 1022.1
20260503054103 53 88 2.0 3.0 0.00 0.00 0.00 30 1022.0
20260503053505 54 108 2.0 3.0 0.00 0.00 0.00 30 1022.0
20260503053101 54 108 2.0 3.0 0.00 0.00 0.00 30 1022.0
20260503052505 54 136 2.0 4.0 0.00 0.00 0.00 30 1022.0
20260503052009 55 146 3.0 4.0 0.00 0.00 0.00 30 1021.9
20260503051616 55 175 1.0 4.0 0.00 0.00 0.00 30 1022.0
20260503051006 55 109 0.0 2.0 0.00 0.00 0.00 29 1021.9
20260503050605 55 109 0.0 2.0 0.00 0.00 0.00 29 1021.8
20260503050053 55 109 0.0 2.0 0.00 0.00 0.00 28 1021.9
20260503045601 55 109 0.0 2.0 0.00 0.00 0.00 28 1021.9
20260503045002 56 109 0.0 2.0 0.00 0.00 0.00 28 1021.8
20260503044513 56 109 0.0 1.0 0.00 0.00 0.00 28 1021.8
20260503044105 56 159 0.0 0.0 0.00 0.00 0.00 28 1021.9
20260503043506 56 159 0.0 0.0 0.00 0.00 0.00 28 1021.9
20260503043105 56 159 0.0 0.0 0.00 0.00 0.00 28 1021.8
20260503042552 56 159 0.0 0.0 0.00 0.00 0.00 28 1021.8
20260503042101 56 159 0.0 0.0 0.00 0.00 0.00 28 1021.8
20260503041502 56 159 0.0 0.0 0.00 0.00 0.00 28 1021.8